AFL1061 UWOR-UUEE

Flight info

Callsign AFL1061
Flight time 2h 44m
Altitude 34000
Route N0460F340 LALEP T750 OKSUD T787 OTKOL T784 LARNO T291 URIDU L158 DIMGI
Aircraft B738/M-VGDW/C

Departure

Time 2026-04-22 08:03
Airport Orsk Airport (UWOR)

Arrival

Time 2026-04-22 10:47
Airport Sheremetyevo International Airport (UUEE)
Time Latitude Longitude Altitude Speed Heading
2026-04-22 07:48 51.07604 58.59430 891 ft 0 kts 256°
2026-04-22 07:58 51.07603 58.59421 891 ft 2 kts 246°
2026-04-22 07:58 51.07575 58.59409 891 ft 5 kts 179°
2026-04-22 07:58 51.07530 58.59421 892 ft 7 kts 166°
2026-04-22 07:59 51.07468 58.59447 892 ft 10 kts 166°
2026-04-22 07:59 51.07384 58.59478 892 ft 13 kts 167°
2026-04-22 07:59 51.07302 58.59510 892 ft 11 kts 167°
2026-04-22 07:59 51.07254 58.59578 892 ft 10 kts 86°
2026-04-22 08:00 51.07274 58.59722 890 ft 16 kts 77°
2026-04-22 08:00 51.07304 58.59926 888 ft 19 kts 77°
2026-04-22 08:00 51.07335 58.60136 886 ft 19 kts 77°
2026-04-22 08:00 51.07367 58.60347 884 ft 19 kts 77°
2026-04-22 08:01 51.07398 58.60556 882 ft 19 kts 77°
2026-04-22 08:01 51.07428 58.60762 880 ft 19 kts 77°
2026-04-22 08:01 51.07458 58.60965 878 ft 19 kts 77°
2026-04-22 08:01 51.07489 58.61169 876 ft 18 kts 77°
2026-04-22 08:02 51.07519 58.61371 874 ft 19 kts 76°
2026-04-22 08:02 51.07573 58.61507 871 ft 10 kts 82°
2026-04-22 08:02 51.07540 58.61510 871 ft 5 kts 256°
2026-04-22 08:02 51.07534 58.61468 872 ft 3 kts 257°
2026-04-22 08:03 51.07501 58.61241 875 ft 55 kts 257°
2026-04-22 08:03 51.07356 58.60275 885 ft 124 kts 258°
2026-04-22 08:03 51.07116 58.58648 1009 ft 171 kts 259°
2026-04-22 08:03 51.06849 58.56821 1867 ft 170 kts 262°
2026-04-22 08:04 51.06939 58.54994 2372 ft 174 kts 293°
2026-04-22 08:04 51.07580 58.53305 2788 ft 184 kts 303°
2026-04-22 08:04 51.08247 58.51499 3154 ft 199 kts 298°
2026-04-22 08:04 51.08904 58.49446 3494 ft 217 kts 297°
2026-04-22 08:05 51.09600 58.47208 3936 ft 232 kts 297°
2026-04-22 08:05 51.10336 58.44851 4418 ft 245 kts 297°
2026-04-22 08:05 51.11107 58.42401 5025 ft 252 kts 296°
2026-04-22 08:05 51.11889 58.39917 5761 ft 254 kts 296°
2026-04-22 08:06 51.12674 58.37421 6462 ft 257 kts 296°
2026-04-22 08:06 51.13476 58.34868 7131 ft 261 kts 295°
2026-04-22 08:06 51.14284 58.32293 7814 ft 265 kts 295°
2026-04-22 08:06 51.15107 58.29665 8490 ft 267 kts 295°
2026-04-22 08:07 51.15940 58.27004 9151 ft 271 kts 294°
2026-04-22 08:07 51.16784 58.24306 9781 ft 275 kts 294°
2026-04-22 08:07 51.17643 58.21555 10293 ft 284 kts 294°
2026-04-22 08:07 51.18541 58.18675 10643 ft 298 kts 294°
2026-04-22 08:08 51.19478 58.15665 10952 ft 314 kts 294°
2026-04-22 08:08 51.20477 58.12460 11271 ft 329 kts 294°
2026-04-22 08:08 51.21505 58.09157 11664 ft 341 kts 294°
2026-04-22 08:08 51.22562 58.05768 12309 ft 345 kts 294°
2026-04-22 08:09 51.23635 58.02321 12983 ft 349 kts 294°
2026-04-22 08:09 51.24714 57.98845 13641 ft 353 kts 294°
2026-04-22 08:09 51.25796 57.95353 14277 ft 357 kts 294°
2026-04-22 08:09 51.26896 57.91797 14929 ft 361 kts 294°
2026-04-22 08:10 51.27983 57.88205 15543 ft 365 kts 292°
2026-04-22 08:10 51.29035 57.84518 16139 ft 369 kts 291°
2026-04-22 08:10 51.30072 57.80771 16752 ft 373 kts 290°
2026-04-22 08:10 51.31120 57.76964 17355 ft 376 kts 290°
2026-04-22 08:11 51.32173 57.73158 17916 ft 380 kts 290°
2026-04-22 08:11 51.33254 57.69278 18505 ft 383 kts 290°
2026-04-22 08:11 51.34345 57.65384 19105 ft 387 kts 290°
2026-04-22 08:11 51.35434 57.61495 19695 ft 389 kts 290°
2026-04-22 08:12 51.36542 57.57539 20272 ft 392 kts 290°
2026-04-22 08:12 51.37656 57.53560 20818 ft 395 kts 290°
2026-04-22 08:12 51.38778 57.49546 21379 ft 397 kts 290°
2026-04-22 08:12 51.39900 57.45527 21900 ft 400 kts 290°
2026-04-22 08:13 51.41037 57.41441 22395 ft 404 kts 290°
2026-04-22 08:13 51.42180 57.37326 22916 ft 406 kts 290°
2026-04-22 08:13 51.43327 57.33196 23455 ft 407 kts 289°
2026-04-22 08:13 51.44478 57.29042 23965 ft 409 kts 289°
2026-04-22 08:14 51.45630 57.24871 24412 ft 413 kts 289°
2026-04-22 08:14 51.46793 57.20654 24887 ft 415 kts 288°
2026-04-22 08:14 51.47958 57.16424 25293 ft 419 kts 288°
2026-04-22 08:14 51.49126 57.12179 25745 ft 422 kts 288°
2026-04-22 08:15 51.50315 57.07852 26220 ft 423 kts 288°
2026-04-22 08:15 51.51506 57.03505 26579 ft 428 kts 288°
2026-04-22 08:15 51.52700 56.99141 27037 ft 429 kts 288°
2026-04-22 08:15 51.53897 56.94756 27426 ft 432 kts 288°
2026-04-22 08:16 51.55102 56.90332 27835 ft 435 kts 288°
2026-04-22 08:16 51.56304 56.85913 28261 ft 436 kts 288°
2026-04-22 08:16 51.57510 56.81473 28648 ft 439 kts 287°
2026-04-22 08:16 51.58729 56.76971 29014 ft 441 kts 287°
2026-04-22 08:17 51.59943 56.72485 29405 ft 443 kts 287°
2026-04-22 08:17 51.61176 56.67917 29791 ft 445 kts 287°
2026-04-22 08:17 51.62402 56.63378 30431 ft 440 kts 287°
2026-04-22 08:17 51.63616 56.58896 30892 ft 440 kts 288°
2026-04-22 08:18 51.64898 56.54478 31332 ft 440 kts 290°
2026-04-22 08:18 51.66260 56.50085 31701 ft 441 kts 290°
2026-04-22 08:18 51.67661 56.45697 32116 ft 440 kts 291°
2026-04-22 08:18 51.69070 56.41327 32516 ft 438 kts 291°
2026-04-22 08:19 51.70485 56.36929 32797 ft 438 kts 291°
2026-04-22 08:19 51.71894 56.32522 33097 ft 437 kts 290°
2026-04-22 08:19 51.73297 56.28102 33408 ft 436 kts 290°
2026-04-22 08:19 51.74674 56.23732 33656 ft 436 kts 290°
2026-04-22 08:20 51.76051 56.19340 33967 ft 434 kts 290°
2026-04-22 08:20 51.77404 56.15008 34204 ft 434 kts 290°
2026-04-22 08:20 51.78765 56.10633 34431 ft 434 kts 290°
2026-04-22 08:20 51.80117 56.06276 34691 ft 433 kts 290°
2026-04-22 08:21 51.81462 56.01929 34880 ft 434 kts 290°
2026-04-22 08:21 51.82807 55.97569 35068 ft 434 kts 290°
2026-04-22 08:21 51.84145 55.93231 35331 ft 432 kts 290°
2026-04-22 08:21 51.85486 55.88881 35536 ft 432 kts 290°
2026-04-22 08:22 51.86827 55.84514 35736 ft 433 kts 290°
2026-04-22 08:22 51.88152 55.80191 35861 ft 434 kts 290°
2026-04-22 08:22 51.90839 55.71394 35882 ft 434 kts 290°
2026-04-22 08:23 51.93500 55.62668 35883 ft 432 kts 290°
2026-04-22 08:23 51.96159 55.53911 35890 ft 432 kts 290°
2026-04-22 08:24 51.98789 55.45210 35884 ft 433 kts 290°
2026-04-22 08:24 52.01419 55.36483 35883 ft 433 kts 290°
2026-04-22 08:25 52.04061 55.27684 35875 ft 432 kts 289°
2026-04-22 08:25 52.06671 55.18956 35873 ft 433 kts 289°
2026-04-22 08:26 52.09288 55.10172 35873 ft 434 kts 289°
2026-04-22 08:26 52.11898 55.01386 35875 ft 433 kts 289°
2026-04-22 08:27 52.14516 54.92543 35870 ft 433 kts 289°
2026-04-22 08:27 52.17110 54.83742 35867 ft 433 kts 289°
2026-04-22 08:28 52.19701 54.74920 35868 ft 433 kts 289°
2026-04-22 08:28 52.22273 54.66136 35867 ft 432 kts 289°
2026-04-22 08:29 52.24855 54.57280 35855 ft 433 kts 289°
2026-04-22 08:29 52.27427 54.48421 35858 ft 433 kts 289°
2026-04-22 08:30 52.29979 54.39601 35851 ft 434 kts 289°
2026-04-22 08:30 52.32549 54.30724 35847 ft 434 kts 289°
2026-04-22 08:31 52.35272 54.21874 35843 ft 435 kts 291°
2026-04-22 08:32 52.39395 54.08775 35836 ft 434 kts 291°
2026-04-22 08:32 52.42138 53.99973 35838 ft 436 kts 291°
2026-04-22 08:33 52.44864 53.91160 35843 ft 435 kts 291°
2026-04-22 08:33 52.47578 53.82330 35851 ft 435 kts 291°
2026-04-22 08:34 52.50273 53.73521 35845 ft 435 kts 291°
2026-04-22 08:34 52.52980 53.64632 35849 ft 436 kts 291°
2026-04-22 08:35 52.55674 53.55761 35843 ft 435 kts 291°
2026-04-22 08:35 52.58360 53.46886 35847 ft 437 kts 291°
2026-04-22 08:36 52.61034 53.38011 35844 ft 436 kts 291°
2026-04-22 08:36 52.63720 53.29071 35847 ft 435 kts 291°
2026-04-22 08:37 52.66381 53.20175 35840 ft 436 kts 290°
2026-04-22 08:37 52.69041 53.11247 35842 ft 436 kts 291°
2026-04-22 08:38 52.71697 53.02306 35841 ft 436 kts 291°
2026-04-22 08:38 52.74343 52.93364 35853 ft 436 kts 291°
2026-04-22 08:39 52.76989 52.84386 35847 ft 437 kts 291°
2026-04-22 08:39 52.79636 52.75367 35847 ft 436 kts 291°
2026-04-22 08:40 52.82248 52.66431 35848 ft 436 kts 291°
2026-04-22 08:40 52.84851 52.57509 35852 ft 430 kts 291°
2026-04-22 08:41 52.87423 52.48642 35854 ft 429 kts 291°
2026-04-22 08:41 52.90019 52.39643 35850 ft 438 kts 291°
2026-04-22 08:42 52.92633 52.30555 35852 ft 437 kts 291°
2026-04-22 08:42 52.95230 52.21513 35850 ft 435 kts 291°
2026-04-22 08:43 52.97818 52.12460 35847 ft 437 kts 291°
2026-04-22 08:43 53.00404 52.03376 35838 ft 437 kts 291°
2026-04-22 08:44 53.02971 51.94320 35837 ft 437 kts 291°
2026-04-22 08:44 53.05546 51.85190 35836 ft 438 kts 291°
2026-04-22 08:45 53.08120 51.76029 35834 ft 437 kts 291°
2026-04-22 08:45 53.10671 51.66911 35836 ft 438 kts 291°
2026-04-22 08:46 53.13223 51.57752 35835 ft 439 kts 291°
2026-04-22 08:46 53.15786 51.48523 35833 ft 439 kts 291°
2026-04-22 08:47 53.18312 51.39386 35831 ft 439 kts 291°
2026-04-22 08:47 53.20863 51.30129 35832 ft 438 kts 291°
2026-04-22 08:48 53.23385 51.20939 35830 ft 439 kts 291°
2026-04-22 08:48 53.25919 51.11673 35829 ft 439 kts 291°
2026-04-22 08:49 53.28431 51.02443 35831 ft 439 kts 291°
2026-04-22 08:49 53.30930 50.93226 35830 ft 439 kts 291°
2026-04-22 08:50 53.33437 50.83944 35827 ft 440 kts 291°
2026-04-22 08:50 53.35941 50.74633 35817 ft 440 kts 291°
2026-04-22 08:51 53.38430 50.65343 35819 ft 440 kts 291°
2026-04-22 08:51 53.40925 50.55987 35815 ft 440 kts 291°
2026-04-22 08:52 53.43403 50.46658 35820 ft 440 kts 291°
2026-04-22 08:52 53.45878 50.37307 35820 ft 440 kts 291°
2026-04-22 08:53 53.48344 50.27945 35819 ft 440 kts 290°
2026-04-22 08:53 53.50888 50.18684 35818 ft 441 kts 294°
2026-04-22 08:54 53.54058 50.09806 35819 ft 444 kts 300°
2026-04-22 08:54 53.57489 50.01225 35819 ft 445 kts 301°
2026-04-22 08:55 53.60952 49.92677 35812 ft 445 kts 301°
2026-04-22 08:55 53.64413 49.84051 35808 ft 445 kts 301°
2026-04-22 08:56 53.67842 49.75426 35807 ft 445 kts 301°
2026-04-22 08:56 53.71249 49.66793 35809 ft 445 kts 301°
2026-04-22 08:57 53.74661 49.58102 35816 ft 445 kts 301°
2026-04-22 08:57 53.78041 49.49459 35824 ft 445 kts 301°
2026-04-22 08:58 53.81437 49.40743 35828 ft 445 kts 301°
2026-04-22 08:58 53.84813 49.32052 35830 ft 444 kts 300°
2026-04-22 08:59 53.88196 49.23312 35830 ft 444 kts 300°
2026-04-22 08:59 53.91571 49.14562 35823 ft 444 kts 300°
2026-04-22 09:00 53.94939 49.05798 35816 ft 445 kts 301°
2026-04-22 09:00 53.98294 48.97033 35813 ft 446 kts 301°
2026-04-22 09:01 54.01653 48.88219 35813 ft 446 kts 301°
2026-04-22 09:01 54.05001 48.79402 35814 ft 445 kts 301°
2026-04-22 09:02 54.08342 48.70575 35813 ft 445 kts 301°
2026-04-22 09:02 54.11676 48.61735 35813 ft 445 kts 301°
2026-04-22 09:03 54.15002 48.52882 35820 ft 445 kts 301°
2026-04-22 09:03 54.18321 48.44019 35827 ft 445 kts 301°
2026-04-22 09:04 54.21629 48.35152 35831 ft 446 kts 301°
2026-04-22 09:04 54.24941 48.26247 35827 ft 445 kts 300°
2026-04-22 09:05 54.28219 48.17289 35824 ft 445 kts 299°
2026-04-22 09:05 54.31377 48.08247 35820 ft 445 kts 298°
2026-04-22 09:06 54.34504 47.99172 35815 ft 445 kts 298°
2026-04-22 09:06 54.37626 47.90108 35812 ft 445 kts 299°
2026-04-22 09:07 54.40774 47.80959 35806 ft 445 kts 299°
2026-04-22 09:07 54.43900 47.71861 35799 ft 445 kts 299°
2026-04-22 09:08 54.47016 47.62766 35791 ft 445 kts 299°
2026-04-22 09:08 54.50149 47.53592 35788 ft 445 kts 299°
2026-04-22 09:09 54.53255 47.44463 35782 ft 445 kts 299°
2026-04-22 09:09 54.56357 47.35311 35784 ft 445 kts 300°
2026-04-22 09:10 54.59459 47.26126 35779 ft 444 kts 298°
2026-04-22 09:10 54.62558 47.16917 35773 ft 444 kts 298°
2026-04-22 09:11 54.65638 47.07725 35768 ft 444 kts 298°
2026-04-22 09:11 54.68704 46.98518 35769 ft 445 kts 298°
2026-04-22 09:12 54.71715 46.89259 35771 ft 444 kts 298°
2026-04-22 09:12 54.74718 46.79923 35777 ft 444 kts 298°
2026-04-22 09:13 54.77700 46.70620 35780 ft 444 kts 298°
2026-04-22 09:13 54.80690 46.61348 35782 ft 445 kts 300°
2026-04-22 09:14 54.84148 46.52470 35781 ft 446 kts 306°
2026-04-22 09:14 54.87938 46.44040 35775 ft 446 kts 308°
2026-04-22 09:15 54.91807 46.35649 35778 ft 445 kts 308°
2026-04-22 09:15 54.95643 46.27273 35781 ft 445 kts 307°
2026-04-22 09:16 54.99477 46.18814 35782 ft 445 kts 307°
2026-04-22 09:16 55.03275 46.10368 35783 ft 445 kts 307°
2026-04-22 09:17 55.07062 46.01899 35785 ft 446 kts 307°
2026-04-22 09:17 55.10828 45.93443 35782 ft 438 kts 307°
2026-04-22 09:18 55.14583 45.84980 35782 ft 447 kts 307°
2026-04-22 09:18 55.18377 45.76397 35778 ft 446 kts 307°
2026-04-22 09:19 55.22154 45.67825 35774 ft 445 kts 307°
2026-04-22 09:19 55.25908 45.59274 35771 ft 444 kts 307°
2026-04-22 09:20 55.29643 45.50737 35766 ft 444 kts 307°
2026-04-22 09:20 55.33381 45.42164 35764 ft 446 kts 307°
2026-04-22 09:21 55.37135 45.33526 35762 ft 446 kts 307°
2026-04-22 09:21 55.40879 45.24878 35766 ft 445 kts 307°
2026-04-22 09:22 55.44609 45.16231 35762 ft 445 kts 307°
2026-04-22 09:22 55.48323 45.07594 35758 ft 445 kts 307°
2026-04-22 09:23 55.52041 44.98915 35755 ft 444 kts 307°
2026-04-22 09:23 55.55453 44.89916 35755 ft 445 kts 297°
2026-04-22 09:23 55.56570 44.84836 35757 ft 445 kts 285°
2026-04-22 09:24 55.57130 44.79520 35759 ft 446 kts 277°
2026-04-22 09:24 55.57582 44.68638 35760 ft 446 kts 273°
2026-04-22 09:25 55.57821 44.57682 35758 ft 446 kts 273°
2026-04-22 09:25 55.58036 44.46772 35758 ft 446 kts 273°
2026-04-22 09:26 55.58264 44.35876 35763 ft 446 kts 273°
2026-04-22 09:26 55.58498 44.24974 35761 ft 448 kts 272°
2026-04-22 09:27 55.58733 44.13995 35762 ft 447 kts 272°
2026-04-22 09:27 55.58960 44.03048 35761 ft 448 kts 273°
2026-04-22 09:28 55.59178 43.92150 35757 ft 447 kts 273°
2026-04-22 09:28 55.59611 43.81211 35750 ft 446 kts 280°
2026-04-22 09:28 55.60370 43.75979 35751 ft 444 kts 291°
2026-04-22 09:29 55.61634 43.70959 35756 ft 445 kts 298°
2026-04-22 09:29 55.64619 43.61467 35751 ft 439 kts 301°
2026-04-22 09:30 55.67720 43.52232 35760 ft 443 kts 302°
2026-04-22 09:30 55.70867 43.42782 35758 ft 446 kts 301°
2026-04-22 09:31 55.73948 43.33370 35755 ft 444 kts 301°
2026-04-22 09:31 55.77016 43.23850 35755 ft 445 kts 299°
2026-04-22 09:32 55.79426 43.13838 35757 ft 446 kts 286°
2026-04-22 09:32 55.80475 43.03018 35755 ft 448 kts 278°
2026-04-22 09:33 55.81068 42.92063 35754 ft 449 kts 276°
2026-04-22 09:33 55.81604 42.81058 35756 ft 448 kts 277°
2026-04-22 09:34 55.82160 42.70060 35754 ft 448 kts 277°
2026-04-22 09:34 55.82731 42.59100 35761 ft 448 kts 277°
2026-04-22 09:35 55.83594 42.42631 35763 ft 449 kts 277°
2026-04-22 09:35 55.84164 42.31592 35764 ft 449 kts 277°
2026-04-22 09:36 55.84726 42.20565 35765 ft 449 kts 276°
2026-04-22 09:36 55.85281 42.09466 35758 ft 449 kts 276°
2026-04-22 09:37 55.85820 41.98501 35751 ft 448 kts 277°
2026-04-22 09:37 55.86352 41.87458 35743 ft 448 kts 277°
2026-04-22 09:38 55.86793 41.76338 35745 ft 451 kts 273°
2026-04-22 09:38 55.86620 41.65276 35751 ft 452 kts 269°
2026-04-22 09:39 55.86202 41.54108 35763 ft 452 kts 268°
2026-04-22 09:39 55.85779 41.43000 35766 ft 452 kts 269°
2026-04-22 09:40 55.85382 41.31860 35755 ft 453 kts 268°
2026-04-22 09:40 55.84999 41.20725 35766 ft 454 kts 268°
2026-04-22 09:41 55.84617 41.09523 35752 ft 454 kts 269°
2026-04-22 09:41 55.84229 40.98350 35767 ft 455 kts 268°
2026-04-22 09:42 55.83830 40.87139 35755 ft 454 kts 268°
2026-04-22 09:42 55.83421 40.75946 35759 ft 455 kts 269°
2026-04-22 09:43 55.83214 40.70399 35616 ft 451 kts 269°
2026-04-22 09:43 55.83006 40.64913 35281 ft 447 kts 269°
2026-04-22 09:43 55.82795 40.59405 34744 ft 450 kts 269°
2026-04-22 09:43 55.82579 40.53884 34093 ft 455 kts 269°
2026-04-22 09:44 55.82352 40.48197 33364 ft 463 kts 270°
2026-04-22 09:44 55.82124 40.42582 32986 ft 458 kts 270°
2026-04-22 09:44 55.81890 40.36956 32564 ft 455 kts 270°
2026-04-22 09:44 55.81655 40.31404 32095 ft 453 kts 270°
2026-04-22 09:45 55.81418 40.25827 31610 ft 452 kts 270°
2026-04-22 09:45 55.81182 40.20349 31163 ft 448 kts 270°
2026-04-22 09:45 55.80944 40.14848 30606 ft 445 kts 270°
2026-04-22 09:45 55.80706 40.09427 30150 ft 441 kts 270°
2026-04-22 09:46 55.80469 40.04067 29679 ft 436 kts 270°
2026-04-22 09:46 55.80230 39.98716 29156 ft 433 kts 270°
2026-04-22 09:46 55.79993 39.93442 28657 ft 430 kts 270°
2026-04-22 09:46 55.79755 39.88164 28188 ft 425 kts 270°
2026-04-22 09:47 55.79519 39.82980 27719 ft 421 kts 270°
2026-04-22 09:47 55.79269 39.77860 27255 ft 417 kts 269°
2026-04-22 09:47 55.78964 39.72748 26756 ft 415 kts 268°
2026-04-22 09:47 55.78630 39.67735 26284 ft 411 kts 268°
2026-04-22 09:48 55.78283 39.62753 25830 ft 406 kts 267°
2026-04-22 09:48 55.77940 39.57881 25721 ft 396 kts 268°
2026-04-22 09:48 55.77597 39.52990 25274 ft 403 kts 268°
2026-04-22 09:48 55.77256 39.48045 24635 ft 406 kts 267°
2026-04-22 09:49 55.76917 39.43121 24053 ft 404 kts 267°
2026-04-22 09:49 55.76579 39.38255 23786 ft 394 kts 267°
2026-04-22 09:49 55.76242 39.33493 23761 ft 389 kts 266°
2026-04-22 09:49 55.75906 39.28695 23763 ft 394 kts 266°
2026-04-22 09:50 55.75567 39.23850 23768 ft 394 kts 266°
2026-04-22 09:50 55.75226 39.19037 23753 ft 393 kts 266°
2026-04-22 09:50 55.74885 39.14232 23767 ft 390 kts 266°
2026-04-22 09:50 55.74548 39.09521 23771 ft 391 kts 266°
2026-04-22 09:51 55.74203 39.04705 23667 ft 396 kts 266°
2026-04-22 09:51 55.73857 38.99924 23348 ft 392 kts 267°
2026-04-22 09:51 55.73576 38.95164 22896 ft 386 kts 270°
2026-04-22 09:51 55.73524 38.90474 22762 ft 375 kts 276°
2026-04-22 09:52 55.73656 38.85887 22613 ft 381 kts 278°
2026-04-22 09:52 55.73877 38.81176 22313 ft 378 kts 279°
2026-04-22 09:52 55.74119 38.76627 21918 ft 372 kts 279°
2026-04-22 09:52 55.74364 38.72113 21422 ft 370 kts 279°
2026-04-22 09:53 55.74608 38.67546 20905 ft 368 kts 279°
2026-04-22 09:53 55.74849 38.63098 20397 ft 366 kts 281°
2026-04-22 09:53 55.75319 38.58726 19899 ft 359 kts 290°
2026-04-22 09:53 55.76223 38.54722 19760 ft 345 kts 302°
2026-04-22 09:54 55.77457 38.51058 19766 ft 347 kts 307°
2026-04-22 09:54 55.78822 38.47518 19765 ft 348 kts 309°
2026-04-22 09:54 55.80223 38.44035 19762 ft 347 kts 309°
2026-04-22 09:54 55.81625 38.40573 19767 ft 343 kts 310°
2026-04-22 09:55 55.82988 38.37199 19762 ft 329 kts 310°
2026-04-22 09:55 55.84335 38.34013 19580 ft 323 kts 311°
2026-04-22 09:55 55.85706 38.30896 19321 ft 320 kts 311°
2026-04-22 09:55 55.87088 38.27779 19064 ft 318 kts 311°
2026-04-22 09:56 55.88450 38.24695 18799 ft 317 kts 311°
2026-04-22 09:56 55.89795 38.21624 18546 ft 315 kts 311°
2026-04-22 09:56 55.91131 38.18556 18288 ft 314 kts 311°
2026-04-22 09:56 55.92457 38.15498 18031 ft 312 kts 311°
2026-04-22 09:57 55.93756 38.12485 17755 ft 308 kts 310°
2026-04-22 09:57 55.95053 38.09468 17387 ft 305 kts 310°
2026-04-22 09:57 55.96333 38.06493 17002 ft 302 kts 310°
2026-04-22 09:57 55.97609 38.03528 16610 ft 300 kts 310°
2026-04-22 09:58 55.98858 38.00599 16219 ft 298 kts 309°
2026-04-22 09:58 55.99984 37.97491 15834 ft 299 kts 301°
2026-04-22 09:58 56.00742 37.94087 15760 ft 302 kts 289°
2026-04-22 09:58 56.01237 37.90371 15751 ft 310 kts 285°
2026-04-22 09:59 56.01635 37.86595 15757 ft 309 kts 284°
2026-04-22 09:59 56.02015 37.82831 15670 ft 307 kts 285°
2026-04-22 09:59 56.02623 37.79217 15412 ft 304 kts 300°
2026-04-22 09:59 56.03887 37.76297 15147 ft 295 kts 323°
2026-04-22 10:00 56.05626 37.74444 14905 ft 290 kts 337°
2026-04-22 10:00 56.07453 37.72992 14657 ft 291 kts 338°
2026-04-22 10:00 56.09215 37.71229 14247 ft 291 kts 321°
2026-04-22 10:00 56.10364 37.68332 13963 ft 290 kts 295°
2026-04-22 10:01 56.10971 37.64903 13695 ft 284 kts 288°
2026-04-22 10:01 56.11459 37.61529 13288 ft 283 kts 288°
2026-04-22 10:01 56.11964 37.58144 12894 ft 280 kts 289°
2026-04-22 10:01 56.12492 37.54823 12551 ft 274 kts 289°
2026-04-22 10:02 56.13021 37.51637 12410 ft 259 kts 290°
2026-04-22 10:02 56.13528 37.48617 12123 ft 253 kts 290°
2026-04-22 10:02 56.14037 37.45602 11706 ft 251 kts 290°
2026-04-22 10:02 56.14534 37.42638 11343 ft 249 kts 289°
2026-04-22 10:03 56.15031 37.39686 11012 ft 248 kts 291°
2026-04-22 10:03 56.15718 37.36865 10679 ft 245 kts 306°
2026-04-22 10:03 56.16938 37.34858 10337 ft 241 kts 334°
2026-04-22 10:03 56.18544 37.34049 10019 ft 240 kts 353°
2026-04-22 10:04 56.20198 37.33963 9690 ft 240 kts 360°
2026-04-22 10:04 56.21861 37.34085 9362 ft 240 kts
2026-04-22 10:04 56.23529 37.34237 9048 ft 239 kts
2026-04-22 10:04 56.25181 37.34441 8722 ft 239 kts
2026-04-22 10:05 56.26752 37.35371 8384 ft 242 kts 30°
2026-04-22 10:05 56.27917 37.37543 8055 ft 246 kts 57°
2026-04-22 10:05 56.28552 37.40367 7742 ft 248 kts 75°
2026-04-22 10:05 56.28633 37.43454 7411 ft 251 kts 100°
2026-04-22 10:06 56.27897 37.46270 7099 ft 251 kts 129°
2026-04-22 10:06 56.26625 37.48351 6980 ft 247 kts 147°
2026-04-22 10:06 56.25042 37.49542 6974 ft 249 kts 173°
2026-04-22 10:06 56.23349 37.49275 6979 ft 245 kts 200°
2026-04-22 10:07 56.21850 37.47903 6979 ft 243 kts 218°
2026-04-22 10:07 56.20710 37.45749 6978 ft 239 kts 243°
2026-04-22 10:07 56.20177 37.42973 6990 ft 237 kts 261°
2026-04-22 10:07 56.19931 37.40037 6979 ft 236 kts 263°
2026-04-22 10:08 56.19534 37.37204 6976 ft 238 kts 245°
2026-04-22 10:08 56.18435 37.35008 6978 ft 243 kts 213°
2026-04-22 10:08 56.16864 37.33931 6976 ft 246 kts 191°
2026-04-22 10:08 56.15147 37.33773 6975 ft 248 kts 174°
2026-04-22 10:09 56.13536 37.34777 6984 ft 251 kts 145°
2026-04-22 10:09 56.12365 37.37035 6985 ft 250 kts 120°
2026-04-22 10:09 56.11697 37.39889 6984 ft 249 kts 101°
2026-04-22 10:09 56.11674 37.42960 6981 ft 246 kts 73°
2026-04-22 10:10 56.12423 37.45660 6992 ft 243 kts 50°
2026-04-22 10:10 56.13617 37.47759 6988 ft 240 kts 31°
2026-04-22 10:10 56.15121 37.48850 6984 ft 236 kts
2026-04-22 10:10 56.16749 37.48989 6984 ft 235 kts 359°
2026-04-22 10:11 56.18385 37.49039 6979 ft 235 kts 359°
2026-04-22 10:11 56.20026 37.49134 6976 ft 235 kts
2026-04-22 10:11 56.21649 37.49251 6974 ft 235 kts
2026-04-22 10:11 56.23273 37.49291 6972 ft 234 kts 354°
2026-04-22 10:12 56.24822 37.48542 6968 ft 232 kts 328°
2026-04-22 10:12 56.25987 37.46607 6973 ft 232 kts 304°
2026-04-22 10:12 56.26702 37.43993 6970 ft 232 kts 288°
2026-04-22 10:12 56.26922 37.41155 6965 ft 234 kts 265°
2026-04-22 10:13 56.26420 37.38382 6971 ft 238 kts 241°
2026-04-22 10:13 56.25423 37.35989 6968 ft 240 kts 226°
2026-04-22 10:13 56.24018 37.34386 6965 ft 244 kts 198°
2026-04-22 10:13 56.22322 37.34027 6977 ft 248 kts 182°
2026-04-22 10:14 56.20598 37.34002 6969 ft 247 kts 182°
2026-04-22 10:14 56.18893 37.33946 6969 ft 247 kts 183°
2026-04-22 10:14 56.17177 37.33842 6964 ft 247 kts 184°
2026-04-22 10:14 56.15466 37.33816 6966 ft 248 kts 177°
2026-04-22 10:15 56.13800 37.34607 6974 ft 250 kts 149°
2026-04-22 10:15 56.12630 37.36853 6981 ft 250 kts 114°
2026-04-22 10:15 56.12257 37.39859 6986 ft 249 kts 88°
2026-04-22 10:15 56.12522 37.42888 6980 ft 246 kts 67°
2026-04-22 10:16 56.13452 37.45327 6985 ft 241 kts 36°
2026-04-22 10:16 56.14949 37.46560 6989 ft 237 kts
2026-04-22 10:16 56.16575 37.46829 6984 ft 235 kts 360°
2026-04-22 10:16 56.18207 37.46921 6983 ft 235 kts 360°
2026-04-22 10:17 56.19841 37.47029 6983 ft 235 kts
2026-04-22 10:17 56.21483 37.47149 6981 ft 235 kts
2026-04-22 10:17 56.23111 37.47201 6980 ft 234 kts 354°
2026-04-22 10:17 56.24654 37.46519 6973 ft 232 kts 329°
2026-04-22 10:18 56.25785 37.44489 6976 ft 232 kts 298°
2026-04-22 10:18 56.26267 37.41731 6973 ft 234 kts 277°
2026-04-22 10:18 56.26215 37.38825 6969 ft 236 kts 257°
2026-04-22 10:18 56.25434 37.36266 6972 ft 240 kts 226°
2026-04-22 10:19 56.24017 37.34647 6979 ft 244 kts 203°
2026-04-22 10:19 56.22363 37.33984 6982 ft 247 kts 185°
2026-04-22 10:19 56.20645 37.33901 6978 ft 247 kts 181°
2026-04-22 10:19 56.18926 37.33890 6977 ft 247 kts 182°
2026-04-22 10:20 56.17213 37.33828 6973 ft 247 kts 183°
2026-04-22 10:20 56.15498 37.33815 6973 ft 248 kts 177°
2026-04-22 10:20 56.13837 37.34575 6978 ft 250 kts 150°
2026-04-22 10:20 56.12644 37.36794 6983 ft 251 kts 115°
2026-04-22 10:21 56.12253 37.39787 6984 ft 248 kts 88°
2026-04-22 10:21 56.12501 37.42786 6974 ft 246 kts 68°
2026-04-22 10:21 56.13429 37.45305 6977 ft 241 kts 36°
2026-04-22 10:21 56.14901 37.46552 6981 ft 237 kts
2026-04-22 10:22 56.16539 37.46837 6978 ft 236 kts 360°
2026-04-22 10:22 56.18181 37.46932 6981 ft 236 kts 359°
2026-04-22 10:22 56.19810 37.47041 6983 ft 236 kts 360°
2026-04-22 10:22 56.21458 37.47162 6982 ft 236 kts
2026-04-22 10:23 56.23080 37.47214 6978 ft 235 kts 354°
2026-04-22 10:23 56.24646 37.46518 6970 ft 232 kts 328°
2026-04-22 10:23 56.25762 37.44499 6973 ft 232 kts 298°
2026-04-22 10:23 56.26246 37.41753 6971 ft 233 kts 278°
2026-04-22 10:24 56.26215 37.38849 6969 ft 235 kts 258°
2026-04-22 10:24 56.25440 37.36288 6975 ft 240 kts 226°
2026-04-22 10:24 56.24036 37.34672 6981 ft 244 kts 203°
2026-04-22 10:24 56.22368 37.33992 6984 ft 247 kts 186°
2026-04-22 10:25 56.20654 37.33907 6979 ft 247 kts 181°
2026-04-22 10:25 56.18951 37.33897 6977 ft 247 kts 182°
2026-04-22 10:25 56.17222 37.33836 6971 ft 247 kts 183°
2026-04-22 10:25 56.15453 37.33836 7377 ft 261 kts 176°
2026-04-22 10:26 56.13710 37.34575 7926 ft 262 kts 153°
2026-04-22 10:26 56.12381 37.36751 7992 ft 260 kts 118°
2026-04-22 10:26 56.11915 37.39784 7989 ft 253 kts 88°
2026-04-22 10:26 56.12220 37.42838 7984 ft 250 kts 68°
2026-04-22 10:27 56.13026 37.45563 7989 ft 246 kts 46°
2026-04-22 10:27 56.14388 37.47264 7989 ft 240 kts 15°
2026-04-22 10:27 56.16011 37.47649 7989 ft 238 kts 359°
2026-04-22 10:27 56.17659 37.47711 7983 ft 237 kts 359°
2026-04-22 10:28 56.19315 37.47824 7985 ft 237 kts
2026-04-22 10:28 56.20954 37.47954 7989 ft 237 kts
2026-04-22 10:28 56.22613 37.48077 7990 ft 236 kts 359°
2026-04-22 10:28 56.24236 37.47812 7982 ft 235 kts 342°
2026-04-22 10:29 56.25607 37.46326 7990 ft 234 kts 312°
2026-04-22 10:29 56.26418 37.43798 7985 ft 236 kts 288°
2026-04-22 10:29 56.26678 37.40929 7983 ft 237 kts 271°
2026-04-22 10:29 56.26319 37.38032 7982 ft 241 kts 243°
2026-04-22 10:30 56.25225 37.35754 7985 ft 246 kts 219°
2026-04-22 10:30 56.23718 37.34269 7978 ft 250 kts 198°
2026-04-22 10:30 56.21992 37.33865 7985 ft 253 kts 182°
2026-04-22 10:30 56.20243 37.33882 7980 ft 253 kts 181°
2026-04-22 10:31 56.18490 37.33889 7977 ft 252 kts 182°
2026-04-22 10:31 56.16729 37.33818 7969 ft 252 kts 183°
2026-04-22 10:31 56.14985 37.33921 7969 ft 254 kts 172°
2026-04-22 10:31 56.13338 37.35101 7985 ft 256 kts 140°
2026-04-22 10:32 56.12338 37.37641 7983 ft 254 kts 107°
2026-04-22 10:32 56.12144 37.40731 7985 ft 252 kts 82°
2026-04-22 10:32 56.12554 37.43736 7977 ft 248 kts 62°
2026-04-22 10:32 56.13636 37.46043 7989 ft 243 kts 30°
2026-04-22 10:33 56.15201 37.47046 7984 ft 239 kts
2026-04-22 10:33 56.16861 37.47207 7979 ft 238 kts 359°
2026-04-22 10:33 56.18503 37.47306 7977 ft 237 kts 360°
2026-04-22 10:33 56.20155 37.47430 7977 ft 238 kts
2026-04-22 10:34 56.21804 37.47559 7974 ft 237 kts
2026-04-22 10:34 56.23450 37.47575 7972 ft 236 kts 352°
2026-04-22 10:34 56.24995 37.46721 7969 ft 234 kts 325°
2026-04-22 10:34 56.26063 37.44573 7972 ft 234 kts 297°
2026-04-22 10:35 56.26523 37.41792 7969 ft 236 kts 278°
2026-04-22 10:35 56.26452 37.38827 7965 ft 240 kts 255°
2026-04-22 10:35 56.25604 37.36293 7969 ft 245 kts 225°
2026-04-22 10:35 56.24162 37.34655 7968 ft 249 kts 204°
2026-04-22 10:36 56.22465 37.33969 7974 ft 252 kts 185°
2026-04-22 10:36 56.20708 37.33894 7969 ft 252 kts 181°
2026-04-22 10:36 56.18957 37.33891 7968 ft 252 kts 182°
2026-04-22 10:36 56.17202 37.33835 7963 ft 252 kts 183°
2026-04-22 10:37 56.15457 37.34099 7962 ft 255 kts 161°
2026-04-22 10:37 56.13455 37.38742 7459 ft 252 kts 88°
2026-04-22 10:37 56.13937 37.41685 7116 ft 246 kts 54°
2026-04-22 10:38 56.15012 37.43997 6805 ft 242 kts 40°
2026-04-22 10:38 56.16267 37.45978 6497 ft 241 kts 38°
2026-04-22 10:38 56.17450 37.48077 6199 ft 242 kts 47°
2026-04-22 10:38 56.18390 37.50613 5906 ft 242 kts 61°
2026-04-22 10:39 56.19000 37.53421 5603 ft 243 kts 71°
2026-04-22 10:39 56.19366 37.56353 5315 ft 242 kts 85°
2026-04-22 10:39 56.19113 37.59306 5025 ft 240 kts 113°
2026-04-22 10:39 56.18188 37.61646 4970 ft 225 kts 134°
2026-04-22 10:40 56.17110 37.63571 4972 ft 214 kts 135°
2026-04-22 10:40 56.16065 37.65470 4973 ft 213 kts 135°
2026-04-22 10:40 56.15044 37.67351 4794 ft 210 kts 135°
2026-04-22 10:40 56.14035 37.69210 4531 ft 208 kts 135°
2026-04-22 10:41 56.13026 37.71062 4180 ft 209 kts 135°
2026-04-22 10:41 56.12027 37.72891 3975 ft 205 kts 135°
2026-04-22 10:41 56.11024 37.74725 3975 ft 208 kts 136°
2026-04-22 10:41 56.09944 37.76482 3973 ft 207 kts 147°
2026-04-22 10:42 56.08664 37.77272 3972 ft 192 kts 183°
2026-04-22 10:42 56.07364 37.76747 3873 ft 191 kts 203°
2026-04-22 10:42 56.06131 37.75970 3721 ft 188 kts 201°
2026-04-22 10:42 56.04877 37.75262 3567 ft 188 kts 200°
2026-04-22 10:43 56.03632 37.74567 3415 ft 188 kts 200°
2026-04-22 10:43 56.02449 37.73645 3263 ft 186 kts 218°
2026-04-22 10:43 56.01711 37.71843 3113 ft 181 kts 253°
2026-04-22 10:43 56.01381 37.69688 2943 ft 181 kts 256°
2026-04-22 10:44 56.01032 37.67553 2764 ft 179 kts 255°
2026-04-22 10:44 56.00698 37.65425 2587 ft 175 kts 256°
2026-04-22 10:44 56.00386 37.63339 2483 ft 174 kts 256°
2026-04-22 10:44 56.00080 37.61293 2496 ft 168 kts 256°
2026-04-22 10:45 55.99773 37.59353 2371 ft 158 kts 258°
2026-04-22 10:45 55.99514 37.57455 2171 ft 158 kts 259°
2026-04-22 10:45 55.99236 37.55623 1962 ft 149 kts 254°
2026-04-22 10:45 55.98971 37.53870 1757 ft 144 kts 257°
2026-04-22 10:46 55.98756 37.52085 1560 ft 149 kts 260°
2026-04-22 10:46 55.98503 37.50306 1377 ft 146 kts 258°
2026-04-22 10:46 55.98214 37.48585 1170 ft 146 kts 252°
2026-04-22 10:46 55.97938 37.46845 1003 ft 146 kts 255°
2026-04-22 10:47 55.97673 37.45092 779 ft 148 kts 260°
2026-04-22 10:47 55.97428 37.43342 641 ft 138 kts 259°
2026-04-22 10:47 55.97218 37.41993 636 ft 82 kts 251°
2026-04-22 10:47 55.97142 37.41394 636 ft 19 kts 302°
2026-04-22 10:48 55.97251 37.41303 636 ft 17 kts 346°
2026-04-22 10:48 55.97362 37.41251 636 ft 16 kts 346°
2026-04-22 10:48 55.97465 37.41202 636 ft 13 kts 346°
2026-04-22 10:48 55.97552 37.41164 636 ft 12 kts 346°
2026-04-22 10:49 55.97626 37.41115 636 ft 10 kts 314°
2026-04-22 10:49 55.97634 37.40996 636 ft 9 kts 253°
2026-04-22 10:49 55.97616 37.40888 636 ft 8 kts 256°
2026-04-22 10:49 55.97602 37.40790 636 ft 7 kts 256°
2026-04-22 10:50 55.97590 37.40702 636 ft 6 kts 262°
2026-04-22 10:50 55.97605 37.40633 636 ft 5 kts 322°
2026-04-22 10:50 55.97639 37.40613 636 ft 5 kts 346°
2026-04-22 10:50 55.97694 37.40585 636 ft 11 kts 329°
2026-04-22 10:51 55.97706 37.40453 636 ft 11 kts 256°
2026-04-22 10:51 55.97685 37.40321 636 ft 10 kts 255°
2026-04-22 10:51 55.97668 37.40200 636 ft 9 kts 256°
2026-04-22 10:51 55.97637 37.40117 636 ft 8 kts 182°
2026-04-22 10:52 55.97585 37.40138 636 ft 6 kts 166°
2026-04-22 10:52 55.97582 37.40139 636 ft 0 kts 166°